User: anonymous   Login
Location: College Rock
(37.2713°N, 119.1740°W)
Time: 00:42:45
(UTC+00:00)
Language:

Cosmos 1190 Rocket - Orbit

View from above orbital plane
View from above orbital plane
View from above satellite
View from above satellite

Ground track
Ground track

The orbit data is extracted from the following two-line orbital elements,

1 11870U 80056B   21021.53037683  .00000012  00000-0  12935-4 0  9994
2 11870  74.0549 313.7150 0017438 297.2994  62.6384 14.36996779123593
Epoch (UTC): 21 January 2021 12:43:44
Eccentricity: 0.0017438
inclination: 74.0549°
perigee height: 756 km
apogee height: 781 km
right ascension of ascending node: 313.7150°
argument of perigee: 297.2994°
revolutions per day: 14.36996779
mean anomaly at epoch: 62.6384°
orbit number at epoch: 12359

The dashed part of the orbit path shows where the satellite is in the earth's shadow,  

DLR